TimeMDT,TemperatureF,Dew PointF,Humidity,Sea Level PressureIn,VisibilityMPH,Wind Direction,Wind SpeedMPH,Gust SpeedMPH,PrecipitationIn,Events,Conditions,WindDirDegrees,DateUTC
12:52 AM,59.0,55.0,87,29.99,-9999.0,Calm,Calm,-,N/A,,Unknown,0,2013-09-11 06:52:00
1:52 AM,57.9,55.0,90,29.99,-9999.0,NNW,3.5,-,N/A,,Unknown,340,2013-09-11 07:52:00
2:52 AM,57.0,54.0,89,30.00,-9999.0,Calm,Calm,-,N/A,,Unknown,0,2013-09-11 08:52:00
3:52 AM,55.9,54.0,93,30.01,-9999.0,Calm,Calm,-,N/A,,Unknown,0,2013-09-11 09:52:00
4:52 AM,55.0,53.1,93,30.02,-9999.0,NW,3.5,-,N/A,,Unknown,310,2013-09-11 10:52:00
5:52 AM,54.0,52.0,93,30.05,-9999.0,Calm,Calm,-,N/A,,Unknown,0,2013-09-11 11:52:00
6:52 AM,54.0,52.0,93,30.08,-9999.0,NNW,3.5,-,N/A,,Unknown,330,2013-09-11 12:52:00
7:52 AM,53.1,51.1,93,30.09,-9999.0,Calm,Calm,-,N/A,,Unknown,0,2013-09-11 13:52:00
8:52 AM,54.0,52.0,93,30.11,-9999.0,Calm,Calm,-,N/A,,Unknown,0,2013-09-11 14:52:00
9:52 AM,57.9,53.1,84,30.09,-9999.0,Calm,Calm,-,N/A,,Unknown,0,2013-09-11 15:52:00
10:52 AM,64.9,52.0,63,30.06,-9999.0,Calm,Calm,-,N/A,,Unknown,0,2013-09-11 16:52:00
11:52 AM,71.1,54.0,55,30.02,-9999.0,North,3.5,-,N/A,,Unknown,360,2013-09-11 17:52:00
12:52 PM,80.1,54.0,40,29.97,-9999.0,Calm,Calm,-,N/A,,Unknown,0,2013-09-11 18:52:00
1:52 PM,88.0,53.1,30,29.92,-9999.0,Calm,Calm,-,N/A,,Unknown,0,2013-09-11 19:52:00
2:52 PM,90.0,60.1,37,29.88,-9999.0,Calm,Calm,-,N/A,,Unknown,0,2013-09-11 20:52:00
3:52 PM,91.9,60.1,34,29.86,-9999.0,Calm,Calm,-,N/A,,Unknown,0,2013-09-11 21:52:00
4:52 PM,91.0,55.9,30,29.84,-9999.0,Calm,Calm,-,N/A,,Unknown,0,2013-09-11 22:52:00
5:52 PM,79.0,55.0,44,29.86,-9999.0,Calm,Calm,-,N/A,,Unknown,0,2013-09-11 23:52:00
6:52 PM,73.0,57.9,59,29.87,-9999.0,Calm,Calm,-,N/A,,Unknown,0,2013-09-12 00:52:00
7:52 PM,69.1,57.9,68,29.89,-9999.0,Calm,Calm,-,N/A,,Unknown,0,2013-09-12 01:52:00
8:52 PM,66.9,55.9,68,29.91,-9999.0,North,3.5,-,N/A,,Unknown,350,2013-09-12 02:52:00
9:52 PM,64.9,55.9,73,29.94,-9999.0,NNW,4.6,-,N/A,,Unknown,340,2013-09-12 03:52:00
10:52 PM,63.0,55.0,75,29.95,-9999.0,NNW,3.5,-,N/A,,Unknown,340,2013-09-12 04:52:00
11:52 PM,61.0,55.0,81,29.96,-9999.0,North,3.5,-,N/A,,Unknown,350,2013-09-12 05:52:00